Tracking 31032 objects as of 14-Jul-2025
HD Live streaming from Space Station
objects crossing your sky now

SL-24 R/B

Track SL-24 R/B now!
10-day predictions


NORAD ID: 31699
Int'l Code: 2007-026B
Perigee: 510.0 km
Apogee: 986.9 km
Inclination: 97.4 °
Period: 99.6 minutes
Semi major axis: 7119 km
RCS: 6.666 m2 (large)
Launch date: June 15, 2007
Source: Commonwealth of Independent States (former USSR) (CIS)
Launch site: TYURATAM MISSILE AND SPACE COMPLEX (TTMTR)

Note: This is a ROCKET BODY
Your satellite tracking list
Your tracking list is empty




NASA's NSSDC Master Catalog

Two Line Element Set (TLE):
1 31699U 07026B   25194.85322662  .00000647  00000-0  10001-3 0  9990
2 31699  97.4300 200.9286 0334880 331.6261  84.9016 14.45214973950640
Source of the keplerian elements: AFSPC